User: anonymous   Login
Location: Unspecified
(17.6330°N, 0.0000°E)
Time: 09:32:21
(UTC+00:00)
Language:

deb Explorer IX - Orbit

View from above orbital plane
View from above orbital plane
View from above satellite
View from above satellite

Ground track
Ground track

The orbit data is extracted from the following two-line orbital elements,

1    85U 61004C   19174.03966104  .00001987  00000-0  42605-3 0  9990
2    85  38.7760  58.0424 0401843 259.8937  95.6256 14.19811842879828
Epoch (UTC): 23 June 2019 00:57:06
Eccentricity: 0.0401843
inclination: 38.7760°
perigee height: 536 km
apogee height: 1115 km
right ascension of ascending node: 58.0424°
argument of perigee: 259.8937°
revolutions per day: 14.19811842
mean anomaly at epoch: 95.6256°
orbit number at epoch: 87982

The dashed part of the orbit path shows where the satellite is in the earth's shadow,  

DLR